Salt Lake City, UT

2:03 AM MDT on July 24, 2017 (GMT -0600)
Salt Lake City International

Weather History for KSLC - August, 2012

Change the Weather History Date:

Friday, August 17, 2012

  Actual Average Record
Temperature  
Mean Temperature 83 °F 77 °F  
Max Temperature 94 °F 91 °F 100 °F (1966)
Min Temperature 71 °F 64 °F 48 °F (1968)
Degree Days  
Heating Degree Days 0 0  
Month to date heating degree days 0 0  
Since 1 June heating degree days 38 48  
Since 1 July heating degree days 0 2  
Cooling Degree Days 18 12  
Month to date cooling degree days 305 232  
Year to date cooling degree days 1225 894  
Since 1 June cooling degree days 1147 844  
Growing Degree Days 32 (Base 50)    
Moisture  
Dew Point 44 °F    
Average Humidity 28    
Maximum Humidity 41    
Minimum Humidity 15    
Precipitation  
Precipitation 0.00 in 0.02 in 0.70 in (1983)
Month to date precipitation T 0.34  
Year to date precipitation 7.25 10.16  
Snow  
Snow 0.00 in 0.00 in - ()
Month to date snowfall 0.0 0.0  
Since 1 July snowfall 0.0 0.0  
Snow Depth 0.00 in    
Sea Level Pressure  
Sea Level Pressure 29.86 in    
Wind  
Wind Speed 7 mph (ESE)    
Max Wind Speed 15 mph    
Max Gust Speed 24 mph    
Visibility 10 miles    
Events      
T = Trace of Precipitation, MM = Missing Value Source: NWS Daily Summary

Daily Weather History Graph

Daily Weather History Graph

Search for Another Location

Airport or City:

Trip Planner

Search our weather history database for the weather conditions in past years. The results will help you decide how hot, cold, wet, or windy it might be!

Date:

Astronomy

Aug. 17, 2012 Rise Set
Actual Time 6:40 AM MDT 8:22 PM MDT
Civil Twilight 6:11 AM MDT 8:51 PM MDT
Nautical Twilight 5:36 AM MDT 9:26 PM MDT
Astronomical Twilight 4:58 AM MDT 10:04 PM MDT
Moon 6:47 AM MDT (8/17) 8:06 PM MDT (8/17)
Length of Visible Light 14h 40m
Length of Day
13h 41m
New Moon, 0% of the Moon is Illuminated
Aug 17
New Moon
Aug 24
First Quarter
Aug 31
Full
Sep 8
Last Quarter
Sep 15
New

Hourly Weather History & Observations

Time (MDT) Temp. Dew Point Humidity Pressure Visibility Wind Dir Wind Speed Gust Speed Precip Events Conditions
12:53 AM 75.9 °F 41.0 °F 29% 29.84 in 10.0 mi SSE 8.1 mph - N/A   Partly Cloudy
1:53 AM 73.9 °F 43.0 °F 33% 29.85 in 10.0 mi SE 6.9 mph - N/A   Scattered Clouds
2:53 AM 75.9 °F 43.0 °F 31% 29.84 in 10.0 mi SE 8.1 mph - N/A   Mostly Cloudy
3:53 AM 73.9 °F 41.0 °F 30% 29.84 in 10.0 mi SSE 10.4 mph - N/A   Mostly Cloudy
4:53 AM 73.0 °F 48.0 °F 41% 29.84 in 10.0 mi SE 5.8 mph - N/A   Mostly Cloudy
5:53 AM 73.9 °F 46.9 °F 38% 29.85 in 10.0 mi ENE 6.9 mph - N/A   Scattered Clouds
6:53 AM 73.0 °F 46.0 °F 38% 29.87 in 10.0 mi South 4.6 mph - N/A   Mostly Cloudy
7:53 AM 75.0 °F 48.0 °F 38% 29.90 in 10.0 mi ESE 3.5 mph - N/A   Mostly Cloudy
8:53 AM 79.0 °F 48.0 °F 34% 29.90 in 10.0 mi South 8.1 mph - N/A   Mostly Cloudy
9:53 AM 82.0 °F 46.9 °F 29% 29.92 in 10.0 mi ESE 10.4 mph - N/A   Scattered Clouds
10:53 AM 84.9 °F 46.0 °F 26% 29.92 in 10.0 mi SE 4.6 mph - N/A   Mostly Cloudy
11:53 AM 90.0 °F 46.0 °F 22% 29.91 in 10.0 mi North 4.6 mph - N/A   Scattered Clouds
12:53 PM 91.0 °F 45.0 °F 20% 29.90 in 10.0 mi NW 9.2 mph - N/A   Mostly Cloudy
1:53 PM 93.0 °F 42.1 °F 17% 29.88 in 10.0 mi North 8.1 mph - N/A   Scattered Clouds
2:53 PM 93.9 °F 42.1 °F 17% 29.86 in 10.0 mi NNW 11.5 mph - N/A   Scattered Clouds
3:53 PM 93.9 °F 39.0 °F 15% 29.85 in 10.0 mi North 11.5 mph - N/A   Scattered Clouds
4:53 PM 93.0 °F 39.9 °F 16% 29.83 in 10.0 mi North 9.2 mph - N/A   Scattered Clouds
5:53 PM 91.9 °F 41.0 °F 17% 29.82 in 10.0 mi NNW 9.2 mph - N/A   Scattered Clouds
6:53 PM 90.0 °F 45.0 °F 21% 29.81 in 10.0 mi WNW 9.2 mph - N/A   Scattered Clouds
7:53 PM 84.9 °F 44.1 °F 24% 29.82 in 10.0 mi West 5.8 mph - N/A   Scattered Clouds
8:53 PM 82.9 °F 42.1 °F 24% 29.83 in 10.0 mi Calm Calm - N/A   Scattered Clouds
9:53 PM 81.0 °F 44.1 °F 27% 29.85 in 10.0 mi ESE 3.5 mph - N/A   Partly Cloudy
10:53 PM 78.1 °F 46.0 °F 32% 29.85 in 10.0 mi Calm Calm - N/A   Partly Cloudy
11:53 PM 73.9 °F 46.0 °F 37% 29.86 in 10.0 mi SW 5.8 mph - N/A   Clear